This is the latest recevied weather packets stored in our database for station/object W1SCW. If no packets are shown the sender has not sent any weather packets the latest 10 day(s).
| Time | Temp. | Humidity | Pressure | Rain* | Wind** | Luminosity | Snow |
|---|---|---|---|---|---|---|---|
| 1777831779 | 26.67° C | 41% | 1020.3 hPa | 0 mm | - | 877 W/m² | - |
| 1777831477 | 27.22° C | 41% | 1020.3 hPa | 0 mm | - | 888 W/m² | - |
| 1777831174 | 26.11° C | 41% | 1020.5 hPa | 0 mm | - | 880 W/m² | - |
| 1777830872 | 26.11° C | 38% | 1020.5 hPa | 0 mm | - | 887 W/m² | - |
| 1777830567 | 26.67° C | 42% | 1020.8 hPa | 0 mm | - | 885 W/m² | - |
| 1777830266 | 26.67° C | 40% | 1020.9 hPa | 0 mm | - | 876 W/m² | - |
| 1777829966 | 26.67° C | 39% | 1020.9 hPa | 0 mm | - | 869 W/m² | - |
| 1777829662 | 26.11° C | 41% | 1021 hPa | 0 mm | - | 872 W/m² | - |
| 1777829359 | 26.11° C | 39% | 1021.2 hPa | 0 mm | - | 874 W/m² | - |
| 1777829057 | 26.67° C | 41% | 1021 hPa | 0 mm | - | 873 W/m² | - |
| 1777828753 | 26.11° C | 38% | 1021.3 hPa | 0 mm | - | 868 W/m² | - |
| 1777828450 | 26.67° C | 42% | 1021.3 hPa | 0 mm | - | 861 W/m² | - |
| 1777828147 | 27.22° C | 39% | 1021.2 hPa | 0 mm | - | 856 W/m² | - |
| 1777827843 | 26.11° C | 43% | 1021.1 hPa | 0 mm | - | 851 W/m² | - |
| 1777827540 | 26.67° C | 40% | 1021.5 hPa | 0 mm | - | 846 W/m² | - |
| 1777827238 | 26.11° C | 39% | 1021.3 hPa | 0 mm | - | 838 W/m² | - |
| 1777826934 | 26.11° C | 46% | 1021.4 hPa | 0 mm | - | 829 W/m² | - |
| 1777826631 | 26.11° C | 43% | 1021.5 hPa | 0 mm | - | 821 W/m² | - |
| 1777826327 | 26.11° C | 44% | 1021.3 hPa | 0 mm | - | 815 W/m² | - |
| 1777826025 | 25.56° C | 46% | 1021.3 hPa | 0 mm | - | 808 W/m² | - |
| 1777825722 | 26.11° C | 42% | 1021.5 hPa | 0 mm | - | 799 W/m² | - |
| 1777825420 | 25.56° C | 41% | 1021.5 hPa | 0 mm | - | 790 W/m² | - |
| 1777825117 | 25° C | 42% | 1021.4 hPa | 0 mm | - | 780 W/m² | - |
| 1777824812 | 25° C | 45% | 1021.6 hPa | 0 mm | - | 768 W/m² | - |
| 1777824509 | 25° C | 45% | 1021.7 hPa | 0 mm | - | 757 W/m² | - |
* Rain latest hour (hover to see other rain measurements)
** Current wind speed in m/s (hover to see current wind gust speed)